Aeroporto :
LOGIN :

Iscrizione | Disclaimer

   EN    FR    IT 

 










Sommario :    VFR   VFR Marginale   IFR   IFR Intensivo   IFR Molto Intensivo
Visibilità : 
Base nubi : 
>= 8 km
>= 3000ft
5 / 8 km
1000 / 3000 ft
1500m / 5 km
500 / 1000 ft
800 / 1500m
200 / 500 ft
< 800m
< 200 ft
Simboli :   Temporali  Nebbia  Neve Forte  Precipitazioni Forti  Vento > 20 kt
SIGMETs :   Varie  Temporali  Ghiacco  Turbolenza  Onda orograficha  Ceneri Vulcaniche







- Altitudine del aeroporto : 120 ft
- Codice IATA : MME
- Carte del aeroporto


EGNV - Durham Tees valley

ULTIMO METAR :
  • 211820Z 28007KT CAVOK 10/06 Q1028

METARs OBSOLETI :
  • 211750Z 29009KT CAVOK 10/06 Q1028
  • 211720Z 33008KT 9999 FEW035 11/06 Q1027
  • 211650Z 31013KT 9999 FEW018 12/06 Q1027
  • 211620Z 29012KT 9999 FEW015 SCT032 13/07 Q1026
  • 211550Z 29013KT 9999 FEW015 SCT032 14/07 Q1025

TAF TAF EGNV
Valido dal 21 a 18 ore il 21 a 21 ore UTC


211658Z 2118/2121 30008KT 9999 SCT025
ATIS : +44 9012 018 111
Nessun NOTAM noto per questo aeroporto.



MetMap, La meteo Aeronautica in un colpo d'occhio ! - Copyright ORBIFLY Dicembre 2007 - Disclaimer

ORBIFLY MET'MAP TEAM :

Programmazione e sviluppo : Alexandra Zaïnal
Concezione e sviluppo : Baudouin d'Aumeries
Co-Programmazione e sviluppo : Marc-Olivier Méhu
Supporto tecnico e logistico : Manuel Goepfert
Aiuto per la traduzione : Arnaldo La Scala

Contatto : metmap@orbifly.com




FONTI E CREDITI :

   NOAA